Regional Weather Roundup
Issued by NWS Kansas City/Pleasant Hill, MO

Home | Current Version | Previous Version | Text Only | Print | Product List | Glossary On
Versions: 1 2 3 4 5 6 7 8 9 10 11 12 13 14 15 16 17 18 19 20 21 22 23 24 25 26 27 28 29 30 31 32 33 34 35 36 37 38 39 40 41 42 43 44 45 46 47 48 49 50
000
ASUS43 KEAX 191504
RWREAX

WEATHER ROUNDUP FOR EASTERN KANSAS AND NORTHWEST MISSOURI
NATIONAL WEATHER SERVICE KANSAS CITY/PLEASANT HILL MO
1000 AM CDT FRI SEP 19 2014

KSZ040-057-103>105-MOZ028-029-037-043-191600-
...KANSAS CITY METROPOLITAN AREA...

CITY           SKY/WX    TMP DP  RH WIND       PRES   REMARKS
K.C. INTL      CLOUDY    64  63  96 S9        30.03S FOG
K.C. DOWNTOWN  CLOUDY    66  63  90 S8        30.03S FOG
LEES SUMMIT    CLOUDY    63  61  93 S8        30.05S FOG
OLATHE - IXD   FOG       63  63 100 S12       30.04S VSB 3/4
OLATHE - OJC   FOG       64  63  96 S9        30.03S VSB 1/2
LAWRENCE       FOG       64  63  96 S9        30.03S VSB 1

$$

MOZ001>008-011>017-020>025-030>033-038>040-044>046-053-054-191600-
...NORTHERN AND CENTRAL MISSOURI...

CITY           SKY/WX    TMP DP  RH WIND       PRES   REMARKS
ST. JOSEPH     CLOUDY    65  62  90 S10       30.02S
MOSBY          FOG       61  61 100 SE6       30.04S VSB 3/4
WHITEMAN AFB   NOT AVBL
CLINTON        CLOUDY    64  63  94 CALM      30.07S FOG
SEDALIA        MOSUNNY   68  61  78 SE12      30.07F HAZE
WARSAW         NOT AVBL
MARSHALL       SUNNY     66  66 100 S10       30.08F
CHILLICOTHE      N/A     67  61  81 SE7       30.05F
MOBERLY        SUNNY     70  55  60 S8        30.09S
KIRKSVILLE     NOT AVBL

$$

MOZ041-047>049-056>058-063>065-088>090-097-191600-
...EASTERN AND SOUTHERN MISSOURI...

CITY           SKY/WX    TMP DP  RH WIND       PRES   REMARKS
ST. LOUIS INTL MOSUNNY   68  55  63 E8        30.12R
SPIRIT OF STL  SUNNY     67  56  67 SE3       30.10S
COLUMBIA       SUNNY     66  58  75 SE7       30.09S
JEFFERSON CITY SUNNY     65  57  75 SE6       30.09S
MEXICO         SUNNY     72  61  68 S7        30.10S
ROLLA          SUNNY     65  57  75 SE8       30.09R
LEBANON        SUNNY     63  61  94 SE8       30.09R
OSAGE BEACH    SUNNY     64  59  82 SE6       30.09R
SPRINGFIELD    SUNNY     68  61  78 S13       30.07R
BRANSON        CLOUDY    66  63  88 SE9       30.08R
NEVADA         CLOUDY    68  63  83 SE3       30.06S
JOPLIN         SUNNY     71  65  81 S7        30.04R
WEST PLAINS    SUNNY     65  58  78 SE5       30.10R

$$

IAZ060-094-KSZ022-034>040-054-083-096-NEZ052-066-093-191600-
...KANSAS...SOUTHEAST NEBRASKA AND IOWA...

CITY           SKY/WX    TMP DP  RH WIND       PRES   REMARKS
TOPEKA         CLOUDY    66  65  96 S7        30.02S FOG
MANHATTAN      MOSUNNY   74  66  76 S8        29.98S
EMPORIA        FOG       65  65 100 S9        30.02R VSB 1/2
CHANUTE        CLOUDY    67  66  97 S9        30.04R FOG
WICHITA        MOSUNNY   74  65  73 S10       30.00R
OMAHA          CLOUDY    66  61  84 S16       29.92F HAZE
LINCOLN        CLOUDY    69  63  81 S15       29.93S
FALLS CITY     CLOUDY    64  62  93 S14       29.98F
LAMONI         CLOUDY    61  60  97 S9G17     30.02S FOG
DES MOINES     PTSUNNY   67  60  78 S20G26    29.99F

$$




USA.gov is the U.S. government's official web portal to all federal, state and local government web resources and services.